Weather in Ivanivka

Ukraine / Luhansk Region     48°30′05″N   39°45′53″E
В апреле 2022 года жителям России запретили посещать сайт meteo.paraplan.net по решению Генеральной прокуратуры. Аудитория сайта уменьшилась в 10 раз. Владельцы сайта не видят смысла в поддержке погодного сервера в таких условиях. Сайт будет закрыт в октябре.
temp.,
°C
wind,
m/s
gust,
m/s
humid.,
%
clouds,
%
prec.,
mm/h
press.,
hPa
HPBL,
m
3 october, mon
mon300:00+19sse41163100 0.0 999391
03:00+17sw71189100 2.7 999911
06:00+13wsw6117638 0.5 1004868
09:00+14wsw811583 0.6 10071384
12:00+16wsw8104757 0.0 10091866
15:00+17wsw7104474 0.0 10111919
18:00+16sw4645100 0.0 1012194
21:00+14ssw5859100 0.0 1014457
4 october, tue
tue400:00+13s3772100 0.0 1014212
03:00+12s3877100 0.0 1014224
06:00+12sse367594 0.0 1015167
09:00+15s4660100 0.0 1016392
12:00+19ssw584493 0.0 10151513
15:00+19ssw474794 0.0 10151327
18:00+15sw34585 0.0 101764
21:00+14ssw35645 0.0 101884
5 october, wed
wed500:00+13sw22755 0.0 101939
03:00+11w22775 0.0 101919
06:00+10wnw237320 0.0 102148
09:00+14wnw345696 0.0 1022442
12:00+17w46395 0.0 10221345
15:00+18w57365 0.0 10211840
18:00+14w34505 0.0 102265
21:00+12w345812 0.0 102355
6 october, thu
thu600:00+11wnw37715 0.0 1024180
03:00+9wnw368582 0.0 1025154
06:00+9w3779100 0.0 1025201
09:00+11wnw46645 0.0 1025545
12:00+15wnw554977 0.0 10251022
15:00+16wnw45485 0.0 10241087
18:00+14w11585 0.0 102511
21:00+12sw22625 0.0 102515
7 october, fri
fri700:00+11sw33640 0.0 102543
03:00+11sw34675 0.0 102571
06:00+10wsw33705 0.0 102539
09:00+15wsw355510 0.0 1025342
12:00+19w45445 0.0 10241152
15:00+20wnw45425 0.0 10231359
18:00+16nw22580 0.0 102414
21:00+14n22702 0.0 102511